Location: Ravensburg
(47.7866°N, 9.6124°E)
Time: 19:57:44
(UTC+02:00)

ITAMSAT 1 - Pass Details

Date: 22 March 2026
Orbit: 782 x 793 km, 98.7° (Epoch: 14 April)

Event Time Altitude Azimuth Distance (km) Brightness Sun altitude
Exits shadow 21:49:45 61° 317° (NW) 894 8.0 -30.4°
Drops below altitude 10° 21:54:08 10° 342° (NNW) 2,360 10.8 -30.9°
Sets 21:56:29 0° 345° (NNW) 3,295 11.7 -31.2°
